Weather History for Jonesboro, AR

Change the Weather History Date:

Monday, May 27, 2013

  Actual Average Record
Temperature  
Mean Temperature 74 °F 72 °F  
Max Temperature 87 °F 84 °F 100 °F (1911)
Min Temperature 61 °F 61 °F 41 °F (1961)
Degree Days  
Heating Degree Days 0 0  
Month to date heating degree days 71 35  
Since 1 July heating degree days 3556 3650  
Cooling Degree Days 9 8  
Month to date cooling degree days 125 131  
Year to date cooling degree days 174 178  
Growing Degree Days 24 (Base 50)    
Moisture  
Dew Point 64 °F    
Average Humidity 71    
Maximum Humidity 90    
Minimum Humidity 51    
Precipitation  
Precipitation 0.00 in 0.12 in 4.50 in (1973)
Month to date precipitation 7.34 4.24  
Year to date precipitation 23.87 20.91  
Snow  
Snow 0.00 in 0.00 in - ()
Month to date snowfall 0.0 0.0  
Since 1 July snowfall 11.0 4.8  
Snow Depth 0.00 in    
Sea Level Pressure  
Sea Level Pressure 29.99 in    
Wind  
Wind Speed 10 mph (South)    
Max Wind Speed 22 mph    
Max Gust Speed 30 mph    
Visibility 10 miles    
Events      
T = Trace of Precipitation, MM = Missing Value Source: NWS Daily Summary

Daily Weather History Graph

Daily Weather History Graph

Search for Another Location

Airport:

Trip Planner

Search our weather history database for the weather conditions in past years. The results will help you decide how hot, cold, wet, or windy it might be!

Date:

Astronomy

May. 27, 2013 Rise Set
Actual Time 5:49 AM CDT 8:10 PM CDT
Civil Twilight 5:20 AM CDT 8:39 PM CDT
Nautical Twilight 4:44 AM CDT 9:15 PM CDT
Astronomical Twilight 4:04 AM CDT 9:55 PM CDT
Moon 10:52 PM CDT (5/27) 8:25 AM CDT (5/27)
Length of Visible Light 15h 19m
Length of Day
14h 20m
Waning Gibbous, 91% of the Moon is Illuminated
May 27
Waning Gibbous
May 31
Last Quarter
Jun 8
New
Jun 16
First Quarter
Jun 23
Full

Hourly Weather History & Observations

Time (CDT) Temp. Heat Index Dew Point Humidity Pressure Visibility Wind Dir Wind Speed Gust Speed Precip Events Conditions
12:53 AM 68.0 °F - 59.0 °F 73% 30.06 in 10.0 mi SSW 3.5 mph - N/A   Clear
1:53 AM 68.0 °F - 59.0 °F 73% 30.05 in 10.0 mi SSE 3.5 mph - N/A   Partly Cloudy
2:53 AM 66.9 °F - 60.1 °F 79% 30.05 in 10.0 mi South 3.5 mph - N/A   Clear
3:53 AM 62.1 °F - 59.0 °F 90% 30.04 in 10.0 mi Calm Calm - N/A   Clear
4:53 AM 66.0 °F - 60.1 °F 81% 30.04 in 10.0 mi Calm Calm - N/A   Clear
5:53 AM 62.1 °F - 59.0 °F 90% 30.06 in 10.0 mi Calm Calm - N/A   Partly Cloudy
6:53 AM 68.0 °F - 62.1 °F 81% 30.07 in 10.0 mi SSE 3.5 mph - N/A   Mostly Cloudy
7:53 AM 71.1 °F - 63.0 °F 75% 30.05 in 10.0 mi South 9.2 mph - N/A   Partly Cloudy
8:53 AM 75.0 °F - 64.0 °F 69% 30.04 in 10.0 mi South 9.2 mph - N/A   Clear
9:53 AM 79.0 °F - 66.9 °F 66% 30.04 in 10.0 mi South 13.8 mph 19.6 mph N/A   Mostly Cloudy
10:53 AM 80.1 °F 82.9 °F 69.1 °F 69% 30.03 in 10.0 mi SSW 12.7 mph - N/A   Mostly Cloudy
11:53 AM 82.9 °F 86.5 °F 69.1 °F 63% 30.01 in 10.0 mi South 16.1 mph 25.3 mph N/A   Partly Cloudy
12:53 PM 84.0 °F 87.0 °F 68.0 °F 58% 30.01 in 10.0 mi SSW 20.7 mph 26.5 mph N/A   Mostly Cloudy
1:53 PM 84.0 °F 87.0 °F 68.0 °F 58% 29.99 in 10.0 mi SW 18.4 mph 25.3 mph N/A   Mostly Cloudy
2:53 PM 86.0 °F 89.4 °F 68.0 °F 55% 29.97 in 10.0 mi South 16.1 mph 25.3 mph N/A   Scattered Clouds
3:53 PM 86.0 °F 88.8 °F 66.9 °F 53% 29.95 in 10.0 mi SSW 16.1 mph 24.2 mph N/A   Scattered Clouds
4:53 PM 84.9 °F 88.2 °F 68.0 °F 57% 29.94 in 10.0 mi South 15.0 mph - N/A   Scattered Clouds
5:53 PM 84.9 °F 87.6 °F 66.9 °F 55% 29.94 in 10.0 mi South 12.7 mph - N/A   Clear
6:53 PM 82.9 °F 84.6 °F 64.9 °F 54% 29.93 in 10.0 mi South 15.0 mph - N/A   Scattered Clouds
7:53 PM 81.0 °F 82.7 °F 64.9 °F 58% 29.92 in 10.0 mi South 12.7 mph - N/A   Clear
8:53 PM 80.1 °F 81.7 °F 64.0 °F 58% 29.91 in 10.0 mi South 11.5 mph - N/A   Clear
9:53 PM 78.1 °F - 64.0 °F 62% 29.91 in 10.0 mi South 8.1 mph - N/A   Clear
10:53 PM 75.9 °F - 60.1 °F 58% 29.92 in 10.0 mi South 9.2 mph - N/A   Clear
11:53 PM 73.9 °F - 60.1 °F 62% 29.93 in 10.0 mi South 10.4 mph - N/A   Clear